Regional Weather Roundup
Issued by NWS

Home | Current Version | Previous Version | Graphics & Text | Print | Product List | Glossary On
Versions: 1 2 3 4 5 6 7 8 9 10 11 12 13 14 15 16 17 18 19 20 21 22 23 24 25 26 27 28 29 30 31 32 33 34 35 36 37 38 39 40 41 42 43 44 45 46 47 48 49 50
000
ASUS43 KIND 220200
RWRIN

WEATHER ROUNDUP FOR INDIANA
NATIONAL WEATHER SERVICE INDIANAPOLIS IN
1000 PM EDT SAT OCT 21 2017

NOTE: "FAIR" INDICATES FEW OR NO CLOUDS BELOW 12,000 FEET WITH NO
SIGNIFICANT WEATHER AND/OR OBSTRUCTIONS TO VISIBILITY.

* - STATION DOES NOT REPORT WEATHER SUCH AS PRECIPITATION OR FOG.

+ - STATION NOT QUALITY CONTROLLED BY THE NATIONAL WEATHER SERVICE.
    USE DATA WITH CAUTION...ESPECIALLY DEWPOINT AND RELATIVE
    HUMIDITY OBSERVATIONS.

INZ001>003-010>013-019-020-220300-
NORTHWEST INDIANA

CITY           SKY/WX    TMP DP  RH WIND       PRES   REMARKS
GARY /AIRPORT/ PTCLDY    72  55  56 S8        30.04S
MICHIGAN CITY+ CLEAR     66  52  59 S9        30.07R
MONTICELLO +   CLEAR     66  52  60 S6        30.09S
RENSSELAER +   CLEAR     68  46  45 SE12      30.08S

$$

LMZ046-743>745-220300-
SOUTHERN LAKE MICHIGAN

STATION/POSITION TIME  TEMP    WIND        PRES    WAVE
                       AIR SEA DIR/SP/G            HT
                 (UTC) (F)     (DEG/KT/KT) (MB)    (FT)
BURNS HARBOR     0140   70     170/ 11/ 22 1017.6S
MICHIGAN CITY    0130   70     150/ 12/ 15   N/A
5NW MICH CITY    0150   67 58  180/ 16/ 19   N/A     1

$$

INZ004-005-014>016-021>024-220300-
NORTH CENTRAL INDIANA

CITY           SKY/WX    TMP DP  RH WIND       PRES   REMARKS
GOSHEN         CLEAR     65  50  58 S12       30.12S
PERU/GRISSOM   CLEAR     64  52  64 S10       30.13S
SOUTH BEND     CLEAR     67  53  61 S12       30.09F

$$

INZ006>009-017-018-025>027-220300-
NORTHEAST INDIANA

CITY           SKY/WX    TMP DP  RH WIND       PRES   REMARKS
FORT WAYNE     MOCLDY    63  45  51 S10       30.16S
KENDALLVILLE + MOCLDY    65  45  48 S9        30.15S

$$

INZ028-029-035-036-043>045-051>053-220300-
WEST CENTRAL INDIANA

CITY           SKY/WX    TMP DP  RH WIND       PRES   REMARKS
GREENCASTLE +  CLEAR     63  48  59 SE8       30.13F
LAFAYETTE      CLEAR     66  53  63 S9        30.09F
TERRE HAUTE    PTCLDY    64  52  64 SE10      30.11S

$$

INZ030>032-037>040-046>048-054>057-064-065-220300-
CENTRAL INDIANA

CITY           SKY/WX    TMP DP  RH WIND       PRES   REMARKS
COLUMBUS       PTCLDY    59  45  58 SE5       30.17F
GREENWOOD *+   CLEAR     66  53  61 SE7       30.17S
INDIANAPOLIS   PTCLDY    64  51  62 SE13      30.14F
-EAGLE CREEK   CLEAR     67  49  52 SE12      30.13F
KOKOMO +       CLEAR     64  52  64 S14       30.15S
MT COMFORT *+  CLEAR     63  52  67 SE9       30.16F
SHELBYVILLE    CLEAR     63  47  55 SE10      30.16S

$$

INZ033-034-041-042-049-050-058-059-220300-
EAST CENTRAL INDIANA

CITY           SKY/WX    TMP DP  RH WIND       PRES   REMARKS
MUNCIE         CLEAR     66  46  48 S8        30.17S
RICHMOND +     CLOUDY    57  46  67 SE7       30.21F

$$

INZ060-061-067>069-081>083-085>088-220300-
SOUTHWEST INDIANA

CITY           SKY/WX    TMP DP  RH WIND       PRES   REMARKS
EVANSVILLE     CLEAR     68  54  60 SE8       30.12S
HUNTINGBURG +  CLEAR     63  53  70 SE8       30.15R

$$

INZ062-063-066-070>080-084-089>092-220300-
SOUTH CENTRAL AND SOUTHEAST INDIANA

CITY           SKY/WX    TMP DP  RH WIND       PRES   REMARKS
BLOOMINGTON    PTCLDY    66  49  54 SE10      30.14F
MADISON *+     CLEAR     61  46  59 SE5       30.21S
SEYMOUR +      CLEAR     59  48  67 CALM      30.17F

$$





USA.gov is the U.S. government's official web portal to all federal, state and local government web resources and services.